[[{"header":{"parameterUnit":"m.s-1","parameterCategory":1,"la1":30.2991,"la2":30.254,"lo1":-89.0895,"lo2":-89.0444,"dy":0.0017,"dx":0.0017,"nx":28,"ny":28,"refTime":"2023-07-17T21:00:00:Z","depth":0,"parameterNumber":2,"parameterNumberName":"U-component_of_WINDS"},"data":[0,0,0,0,0,0,0,0,0,0,0,0,0,0,0,0,0,0,0,0,0,0,0,0,0,0,0,0,0,0,0,0,0,0,0,0,0,0,0,0,0,0,0,0,0,0,0,0,0,0,0,0,0,0,0,0,0,0,0.1448,0.145,0,0.1567,0.1568,0.157,0.1655,0.1656,0.1657,0.1657,0.1781,0.1784,0.1786,0,0,0,0,0,0,0,0,0,0,0,0,0,0.1298,0.13,0.1448,0.145,0.1451,0.1567,0.1568,0.157,0.1655,0.1656,0.1657,0.1658,0.178,0.1783,0.1786,0,0,0,0,0,0,0,0,0,0,0,0,0,0.1384,0.1301,0.1448,0.1508,0.1514,0.1566,0.1568,0.157,0.1655,0.1656,0.1657,0.1658,0.1779,0.1783,0.1787,0.179,0,0,0.1799,0.1801,0,0,0,0,0,0,0,0,0.1379,0.139,0.1497,0.1504,0.1511,0.1597,0.1561,0.1644,0.1655,0.1602,0.1658,0.1659,0.1719,0.1728,0.1748,0.1796,0.1801,0.1799,0.1802,0.1803,0.1804,0,0,0,0,0,0,0,0.1373,0.1385,0.1495,0.1499,0.1507,0.1529,0.1543,0.1577,0.1653,0.1606,0.1613,0.1626,0.1723,0.1744,0.1752,0.1803,0.1799,0.1803,0.1805,0.1807,0.1859,0.1858,0,0,0,0,0,0,0.1358,0.138,0.1492,0.1499,0.1446,0.1531,0.1546,0.1569,0.1653,0.1667,0.1625,0.1629,0.1737,0.1747,0.1756,0.1765,0.1803,0.1807,0.1809,0.186,0.1859,0.1858,0,0,0,0,0,0,0.1354,0.1367,0.1487,0.1441,0.1458,0.1532,0.1557,0.157,0.1591,0.1667,0.1681,0.1632,0.1738,0.1751,0.1781,0.1771,0.1809,0.1812,0.1861,0.186,0.1858,0.1783,0,0,0,0,0,0,0.1349,0.1365,0.1366,0.144,0.146,0.1508,0.1556,0.1572,0.1598,0.1605,0.1677,0.169,0.174,0.1774,0.1785,0.1777,0.1815,0.1863,0.1861,0.1859,0.1786,0.1779,0.1772,0,0,0,0,0,0.1344,0.1341,0.1366,0.1379,0.1463,0.1507,0.1519,0.1575,0.1597,0.1599,0.1647,0.1688,0.177,0.1777,0.1789,0.1782,0.1863,0.1861,0.1859,0.179,0.178,0.1772,0,0,0,0,0,0,0.1264,0.1351,0.138,0.1401,0.1446,0.1522,0.1526,0.1564,0.1604,0.1609,0.1679,0.1694,0.1717,0.1753,0.1759,0.179,0.1822,0.1822,0.1765,0.1757,0.175,0.174,0.1819,0,0,0,0,0,0.1248,0.1276,0.1352,0.1363,0.1384,0.1451,0.1472,0.1512,0.1562,0.1581,0.1632,0.1679,0.1716,0.1739,0.1777,0.1793,0.181,0.1794,0.1787,0.1781,0.178,0.1791,0.1785,0.1851,0.1851,0.1851,0,0,0.1217,0.1268,0.1282,0.1348,0.1387,0.1415,0.1466,0.1494,0.1515,0.1586,0.1617,0.1656,0.1713,0.1736,0.1749,0.1767,0.1765,0.1778,0.1772,0.1775,0.1788,0.1781,0.1776,0.1849,0.185,0.185,0,0,0.1174,0.1215,0.1229,0.1268,0.1327,0.1372,0.1375,0.1445,0.1474,0.1506,0.1559,0.1587,0.1648,0.1687,0.1715,0.1687,0.1726,0.1698,0.166,0.167,0.1665,0.1661,0.165,0.1646,0.1697,0.1696,0.1696,0,0.1127,0.1171,0.1231,0.1256,0.1283,0.1348,0.1363,0.1398,0.1466,0.1484,0.1504,0.1582,0.1626,0.1658,0.1651,0.1672,0.1678,0.1689,0.1661,0.1657,0.1654,0.1645,0.1641,0.1692,0.1693,0.1693,0.1694,0,0.1111,0.114,0.1144,0.1208,0.1236,0.1256,0.132,0.1341,0.1379,0.1422,0.1454,0.1509,0.1558,0.1569,0.1607,0.1607,0.1617,0.1647,0.1681,0.1642,0.1635,0.1632,0.1687,0.1688,0.1689,0.169,0,0,0.1019,0.1117,0.1117,0.1147,0.1217,0.1242,0.1264,0.1313,0.133,0.1375,0.1396,0.1447,0.1476,0.1507,0.155,0.1558,0.1532,0.1588,0.1591,0.1575,0.1536,0.1511,0.1506,0.1559,0.1559,0.1558,0.1531,0,0.0986,0.1029,0.1084,0.1109,0.1137,0.12,0.122,0.1265,0.1306,0.1337,0.1383,0.1417,0.1453,0.1473,0.1484,0.1533,0.1525,0.1536,0.1579,0.158,0.1561,0.1503,0.1477,0.1448,0.1528,0.1528,0.1528,0,0.0952,0.0994,0.1021,0.109,0.1104,0.112,0.1169,0.1197,0.1251,0.128,0.1315,0.1361,0.1389,0.1419,0.1458,0.1464,0.1486,0.1512,0.1513,0.1518,0.155,0.1505,0.1441,0.1435,0.1524,0.1524,0.1524,0,0.0881,0.0945,0.0969,0.0993,0.1074,0.1084,0.1118,0.1173,0.1198,0.1242,0.1259,0.1305,0.133,0.1365,0.1422,0.1439,0.1455,0.149,0.148,0.1478,0.1479,0.1478,0.1415,0.1494,0.1494,0.1494,0.1495,0,0.0838,0.0852,0.0938,0.0953,0.0971,0.1035,0.1051,0.1091,0.114,0.1164,0.1222,0.1243,0.1318,0.1348,0.1394,0.1419,0.143,0.1454,0.1466,0.1449,0.1445,0.1462,0.1465,0.1493,0.1494,0.1494,0.1494,0,0.0761,0.082,0.085,0.0924,0.0943,0.0953,0.1017,0.1034,0.1079,0.1108,0.1119,0.119,0.1228,0.1289,0.1347,0.1377,0.1394,0.1414,0.1375,0.1382,0.1368,0.1368,0.1313,0.1309,0.1391,0.139,0.1389,0,0.0728,0.0741,0.0816,0.0836,0.0868,0.09,0.0927,0.0991,0.1017,0.1079,0.1088,0.1132,0.117,0.1229,0.1285,0.133,0.135,0.1328,0.1357,0.1339,0.1349,0.1347,0.1348,0.1321,0.132,0.1319,0.1318,0,0.0665,0.0693,0.0729,0.0775,0.0804,0.0844,0.0886,0.0899,0.0974,0.0999,0.1039,0.1069,0.1127,0.1169,0.1221,0.1258,0.13,0.1309,0.1308,0.129,0.1266,0.1278,0.1356,0.1309,0.131,0.1311,0.1311,0.1312,0.0609,0.0622,0.0677,0.0715,0.0754,0.0792,0.0812,0.0859,0.0894,0.0946,0.0982,0.102,0.1074,0.1149,0.1182,0.1213,0.1232,0.1232,0.1231,0.123,0.1223,0.1262,0.1223,0.1224,0.1224,0.1224,0.1225,0,0.0547,0.0586,0.062,0.0677,0.0707,0.0745,0.0794,0.0816,0.0848,0.0895,0.0932,0.0978,0.1019,0.1079,0.1125,0.1139,0.1159,0.1148,0.1147,0.1155,0.1204,0.12,0.1131,0.1131,0.1131,0.1131,0.1131,0.1131,0.0518,0.0543,0.0578,0.0623,0.0662,0.0699,0.0724,0.076,0.0798,0.0846,0.0881,0.092,0.0972,0.1023,0.1063,0.1079,0.1093,0.1076,0.1098,0.1143,0.1152,0.116,0.1155,0.1079,0.1079,0.1046,0.1046,0.1046]},{"header":{"parameterUnit":"m.s-1","parameterCategory":1,"la1":30.2991,"la2":30.254,"lo1":-89.0895,"lo2":-89.0444,"dy":0.0017,"dx":0.0017,"nx":28,"ny":28,"refTime":"2023-07-17T21:00:00:Z","depth":0,"parameterNumber":3,"parameterNumberName":"V-component_of_WINDS"},"data":[0,0,0,0,0,0,0,0,0,0,0,0,0,0,0,0,0,0,0,0,0,0,0,0,0,0,0,0,0,0,0,0,0,0,0,0,0,0,0,0,0,0,0,0,0,0,0,0,0,0,0,0,0,0,0,0,0,0,4.108,4.1079,0,4.1048,4.1048,4.1048,4.1035,4.1035,4.1035,4.1035,4.0998,4.0997,4.0996,0,0,0,0,0,0,0,0,0,0,0,0,0,4.1124,4.1123,4.108,4.1079,4.1079,4.1049,4.1048,4.1048,4.1035,4.1035,4.1035,4.1035,4.0998,4.0997,4.0995,0,0,0,0,0,0,0,0,0,0,0,0,0,4.11,4.1123,4.108,4.1069,4.1068,4.1049,4.1048,4.1048,4.1035,4.1035,4.1035,4.1035,4.0998,4.0997,4.0995,4.0983,0,0,4.099,4.099,0,0,0,0,0,0,0,0,4.1101,4.1098,4.1071,4.107,4.1068,4.1046,4.105,4.1026,4.1035,4.1047,4.1035,4.1035,4.1013,4.101,4.1004,4.0981,4.098,4.099,4.0989,4.0989,4.0988,0,0,0,0,0,0,0,4.1103,4.1099,4.1067,4.1071,4.1069,4.1064,4.1061,4.1045,4.103,4.1046,4.1045,4.1042,4.1012,4.1006,4.1003,4.0979,4.099,4.0989,4.0988,4.0987,4.0944,4.0944,0,0,0,0,0,0,4.1107,4.1101,4.1068,4.1066,4.1086,4.1063,4.106,4.1053,4.103,4.1027,4.1042,4.1041,4.1008,4.1005,4.1002,4.0986,4.0989,4.0987,4.0986,4.0944,4.0944,4.0944,0,0,0,0,0,0,4.1108,4.1104,4.1069,4.1083,4.1079,4.1063,4.1055,4.1052,4.1045,4.1027,4.1023,4.1038,4.1008,4.1004,4.0988,4.0984,4.0986,4.0985,4.0945,4.0944,4.0944,4.0954,0,0,0,0,0,0,4.1109,4.1105,4.1101,4.1084,4.1078,4.1058,4.1055,4.1051,4.1043,4.1042,4.1022,4.1019,4.1008,4.0991,4.0986,4.0982,4.0984,4.0945,4.0944,4.0944,4.0954,4.0954,4.0954,0,0,0,0,0,4.1111,4.1104,4.1101,4.1097,4.1073,4.1058,4.1054,4.1044,4.1043,4.1038,4.1026,4.102,4.0986,4.0989,4.0984,4.0979,4.0945,4.0945,4.0944,4.0954,4.0954,4.0954,0,0,0,0,0,0,4.1119,4.1101,4.1098,4.1085,4.1073,4.1056,4.1049,4.1044,4.1031,4.103,4.1016,4.1011,4.0996,4.0986,4.099,4.0966,4.0965,4.0963,4.0974,4.0974,4.0974,4.0976,4.0982,0,0,0,0,0,4.112,4.1111,4.1095,4.1085,4.1079,4.1066,4.1058,4.1051,4.1038,4.1032,4.1019,4.1004,4.099,4.0981,4.0968,4.0952,4.0947,4.0947,4.0947,4.0947,4.0946,4.0937,4.0937,4.0943,4.0943,4.0943,0,0,4.1121,4.111,4.1104,4.1086,4.1076,4.1065,4.1061,4.105,4.1041,4.103,4.1014,4.1004,4.0987,4.0972,4.0964,4.0963,4.0943,4.0947,4.0947,4.0946,4.0937,4.0936,4.0936,4.0942,4.0942,4.0942,0,0,4.1117,4.1108,4.1099,4.1089,4.1075,4.1066,4.1064,4.1047,4.104,4.1025,4.1016,4.1005,4.0981,4.097,4.0961,4.0953,4.0946,4.0948,4.0949,4.0941,4.094,4.094,4.0937,4.0936,4.0947,4.0947,4.0947,0,4.1119,4.1104,4.1094,4.1084,4.1076,4.1067,4.1057,4.1047,4.1028,4.1023,4.1022,4.0992,4.098,4.0962,4.096,4.0953,4.0949,4.0951,4.0942,4.0941,4.094,4.0937,4.0936,4.0948,4.0948,4.0948,4.0948,0,4.1107,4.1097,4.1091,4.1075,4.1066,4.1056,4.1044,4.1036,4.103,4.102,4.1004,4.099,4.0973,4.0968,4.0961,4.0949,4.0948,4.0945,4.0943,4.094,4.0937,4.0936,4.0949,4.0948,4.0948,4.0948,0,0,4.1107,4.1087,4.1085,4.1077,4.1061,4.1052,4.1041,4.1027,4.102,4.1007,4.0997,4.0977,4.0974,4.0964,4.0955,4.0948,4.0943,4.0945,4.0944,4.0945,4.0928,4.0931,4.093,4.0938,4.0938,4.0938,4.0929,0,4.11,4.1082,4.1074,4.1059,4.1049,4.104,4.103,4.1018,4.1009,4.0998,4.0988,4.0974,4.0971,4.0965,4.0957,4.0945,4.0939,4.0945,4.0927,4.0927,4.0932,4.0928,4.0931,4.0924,4.0928,4.0928,4.0928,0,4.109,4.108,4.1064,4.105,4.1045,4.1037,4.1023,4.1013,4.0999,4.0993,4.0982,4.0974,4.0961,4.096,4.0941,4.0946,4.0938,4.093,4.093,4.0927,4.0927,4.0925,4.0921,4.092,4.0926,4.0926,4.0926,0,4.1092,4.1073,4.1062,4.1056,4.1039,4.1033,4.1025,4.1012,4.1003,4.099,4.0985,4.097,4.0962,4.095,4.0937,4.0938,4.0919,4.0917,4.0913,4.0913,4.0909,4.0909,4.0903,4.0904,4.0904,4.0904,4.0904,0,4.1085,4.1076,4.1063,4.1055,4.1045,4.1034,4.1023,4.1014,4.1003,4.0993,4.0984,4.0974,4.0958,4.0947,4.0936,4.0922,4.0918,4.0912,4.0909,4.0913,4.0914,4.0907,4.0907,4.0904,4.0904,4.0904,4.0904,0,4.1085,4.1076,4.1063,4.1048,4.1044,4.1036,4.1023,4.1015,4.1006,4.0994,4.099,4.0975,4.0961,4.0947,4.0927,4.0921,4.0906,4.0903,4.0912,4.091,4.0906,4.0907,4.0896,4.0893,4.0896,4.0896,4.0896,0,4.1082,4.1075,4.106,4.1053,4.1046,4.1036,4.1028,4.1017,4.1009,4.0993,4.0987,4.0972,4.096,4.0937,4.0924,4.0908,4.0904,4.0902,4.0902,4.0906,4.0904,4.0905,4.0904,4.0902,4.0902,4.0902,4.0902,0,4.1076,4.1072,4.1062,4.1051,4.1042,4.1032,4.1021,4.1016,4.1003,4.0994,4.0981,4.0971,4.0952,4.0937,4.0921,4.0911,4.0904,4.0902,4.09,4.0903,4.0909,4.0906,4.0912,4.0902,4.0902,4.0902,4.0902,4.0902,4.1074,4.1068,4.1057,4.1046,4.1037,4.1028,4.102,4.101,4.0999,4.0984,4.0978,4.0964,4.095,4.0927,4.0917,4.0905,4.0904,4.0901,4.09,4.09,4.09,4.0911,4.0902,4.0902,4.0902,4.0902,4.0902,0,4.1069,4.1061,4.1052,4.1038,4.1029,4.1025,4.1014,4.1006,4.0994,4.0983,4.0972,4.0956,4.0941,4.0927,4.0912,4.0905,4.0901,4.0901,4.0901,4.0899,4.0903,4.0906,4.0904,4.0904,4.0904,4.0904,4.0904,4.0904,4.1065,4.1054,4.1049,4.1033,4.1025,4.1013,4.1006,4.0997,4.0988,4.0971,4.096,4.0952,4.0938,4.0922,4.0909,4.0905,4.0899,4.09,4.0895,4.0899,4.0899,4.0899,4.0902,4.0899,4.0899,4.0893,4.0893,4.0893]}]]